Weather History for De Ridder, LA

Change the Weather History Date:

Tuesday, March 5, 2013

  Actual Average (KPOE) Record (KPOE)
Temperature  
Mean Temperature 56 °F -  
Max Temperature 66 °F 64 °F 80 °F (1997)
Min Temperature 46 °F 44 °F 26 °F (2002)
Degree Days  
Heating Degree Days 9    
Growing Degree Days 6 (Base 50)    
Moisture  
Dew Point 39 °F    
Average Humidity 52    
Maximum Humidity 88    
Minimum Humidity 21    
Precipitation  
Precipitation 0.00 in - - ()
Sea Level Pressure  
Sea Level Pressure 30.11 in    
Wind  
Wind Speed 11 mph (WNW)    
Max Wind Speed 26 mph    
Max Gust Speed 39 mph    
Visibility 10 miles    
Events      
Averages and records for this station are not official NWS values.
T = Trace of Precipitation, MM = Missing Value Source: NWS Daily Summary

Daily Weather History Graph

Daily Weather History Graph

Search for Another Location

Airport:

Trip Planner

Search our weather history database for the weather conditions in past years. The results will help you decide how hot, cold, wet, or windy it might be!

Date:

Astronomy

Mar. 05, 2013 Rise Set
Actual Time 6:34 AM CST 6:14 PM CST
Civil Twilight 6:10 AM CST 6:39 PM CST
Nautical Twilight 5:42 AM CST 7:07 PM CST
Astronomical Twilight 5:14 AM CST 7:35 PM CST
Moon 1:30 AM CST (3/5) 12:11 PM CST (3/5)
Length of Visible Light 12h 28m
Length of Day
11h 40m
Last Quarter, 40% of the Moon is Illuminated
Mar 5
Last Quarter
Mar 11
New
Mar 19
First Quarter
Mar 27
Full
Apr 2
Last Quarter

Hourly Weather History & Observations

Time (CST) Temp. Windchill Dew Point Humidity Pressure Visibility Wind Dir Wind Speed Gust Speed Precip Events Conditions
12:15 AM 62.6 °F - 57.2 °F 82% 29.89 in 10.0 mi South 10.4 mph 16.1 mph N/A   Scattered Clouds
12:35 AM 62.6 °F - 57.2 °F 82% 29.88 in 10.0 mi South 12.7 mph 16.1 mph N/A   Scattered Clouds
12:55 AM 62.6 °F - 57.2 °F 82% 29.88 in 10.0 mi South 11.5 mph - N/A   Mostly Cloudy
1:15 AM 62.6 °F - 57.2 °F 82% 29.88 in 10.0 mi South 13.8 mph - N/A   Scattered Clouds
1:55 AM 62.6 °F - 57.2 °F 82% 29.88 in 10.0 mi South 10.4 mph - N/A   Mostly Cloudy
2:15 AM 62.6 °F - 57.2 °F 82% 29.87 in 10.0 mi South 11.5 mph - N/A   Overcast
3:15 AM 62.6 °F - 57.2 °F 82% 29.86 in 10.0 mi South 13.8 mph - N/A   Overcast
3:35 AM 62.6 °F - 57.2 °F 82% 29.86 in 10.0 mi South 11.5 mph - N/A   Overcast
3:55 AM 62.6 °F - 59.0 °F 88% 29.87 in 10.0 mi South 11.5 mph - N/A   Overcast
4:15 AM 62.6 °F - 59.0 °F 88% 29.88 in 10.0 mi South 9.2 mph - N/A   Overcast
4:35 AM 62.6 °F - 59.0 °F 88% 29.91 in 10.0 mi SSW 9.2 mph - N/A   Overcast
5:15 AM 62.6 °F - 59.0 °F 88% 29.98 in 5.0 mi WSW 6.9 mph - N/A   Drizzle
5:35 AM 62.6 °F - 59.0 °F 88% 29.97 in 7.0 mi WSW 6.9 mph - N/A   Light Drizzle
5:55 AM 62.6 °F - 59.0 °F 88% 29.98 in 10.0 mi SSW 4.6 mph - N/A   Overcast
6:15 AM 62.6 °F - 59.0 °F 88% 29.97 in 10.0 mi SW 3.5 mph - N/A   Overcast
7:15 AM 62.6 °F - 59.0 °F 88% 29.99 in 7.0 mi Calm Calm - N/A   Overcast
7:55 AM 62.6 °F - 59.0 °F 88% 30.01 in 7.0 mi SW 3.5 mph - N/A   Overcast
8:15 AM 62.6 °F - 59.0 °F 88% 30.03 in 7.0 mi West 4.6 mph - N/A   Mostly Cloudy
8:55 AM 59.0 °F - 44.6 °F 59% 30.07 in 10.0 mi NNW 26.5 mph 39.1 mph N/A   Mostly Cloudy
9:15 AM 57.2 °F - 42.8 °F 59% 30.09 in 10.0 mi NW 21.9 mph 29.9 mph N/A   Overcast
9:35 AM 57.2 °F - 41.0 °F 55% 30.11 in 10.0 mi NNW 16.1 mph 27.6 mph N/A   Overcast
9:55 AM 57.2 °F - 41.0 °F 55% 30.12 in 10.0 mi NW 16.1 mph 25.3 mph N/A   Overcast
10:15 AM 59.0 °F - 39.2 °F 48% 30.12 in 10.0 mi NW 16.1 mph 21.9 mph N/A   Mostly Cloudy
10:35 AM 60.8 °F - 39.2 °F 45% 30.12 in 10.0 mi NW 15.0 mph 23.0 mph N/A   Scattered Clouds
10:55 AM 60.8 °F - 39.2 °F 45% 30.13 in 10.0 mi WNW 15.0 mph 20.7 mph N/A   Scattered Clouds
11:15 AM 62.6 °F - 39.2 °F 42% 30.14 in 10.0 mi WNW 12.7 mph 18.4 mph N/A   Scattered Clouds
11:35 AM 62.6 °F - 39.2 °F 42% 30.13 in 10.0 mi NW 10.4 mph 21.9 mph N/A   Scattered Clouds
11:55 AM 62.6 °F - 37.4 °F 39% 30.14 in 10.0 mi NNW 12.7 mph 19.6 mph N/A   Scattered Clouds
12:15 PM 62.6 °F - 37.4 °F 39% 30.14 in 10.0 mi NNW 15.0 mph 24.2 mph N/A   Scattered Clouds
12:55 PM 62.6 °F - 35.6 °F 37% 30.13 in 10.0 mi NW 15.0 mph 19.6 mph N/A   Scattered Clouds
1:15 PM 64.4 °F - 33.8 °F 32% 30.14 in 10.0 mi WNW 19.6 mph 24.2 mph N/A   Scattered Clouds
1:35 PM 64.4 °F - 32.0 °F 30% 30.14 in 10.0 mi NW 19.6 mph 25.3 mph N/A   Scattered Clouds
1:55 PM 64.4 °F - 30.2 °F 28% 30.13 in 10.0 mi NW 21.9 mph 28.8 mph N/A   Scattered Clouds
2:15 PM 66.2 °F - 28.4 °F 24% 30.14 in 10.0 mi NW 15.0 mph 23.0 mph N/A   Scattered Clouds
2:35 PM 64.4 °F - 32.0 °F 30% 30.14 in 10.0 mi NNW 12.7 mph 25.3 mph N/A   Scattered Clouds
2:55 PM 64.4 °F - 30.2 °F 28% 30.14 in 10.0 mi NNW 10.4 mph 21.9 mph N/A   Scattered Clouds
3:15 PM 64.4 °F - 28.4 °F 26% 30.14 in 10.0 mi NW 15.0 mph 25.3 mph N/A   Clear
3:55 PM 64.4 °F - 23.0 °F 21% 30.15 in 10.0 mi NW 19.6 mph 26.5 mph N/A   Clear
4:15 PM 64.4 °F - 24.8 °F 22% 30.16 in 10.0 mi NW 17.3 mph 24.2 mph N/A   Scattered Clouds
4:35 PM 64.4 °F - 23.0 °F 21% 30.16 in 10.0 mi NW 16.1 mph 25.3 mph N/A   Scattered Clouds
4:55 PM 64.4 °F - 23.0 °F 21% 30.16 in 10.0 mi NW 17.3 mph 20.7 mph N/A   Scattered Clouds
5:15 PM 62.6 °F - 24.8 °F 24% 30.17 in 10.0 mi NW 15.0 mph 20.7 mph N/A   Scattered Clouds
5:35 PM 60.8 °F - 26.6 °F 27% 30.18 in 10.0 mi NW 10.4 mph 18.4 mph N/A   Scattered Clouds
5:55 PM 60.8 °F - 26.6 °F 27% 30.18 in 10.0 mi NW 11.5 mph 18.4 mph N/A   Scattered Clouds
6:15 PM 59.0 °F - 26.6 °F 29% 30.19 in 10.0 mi NW 8.1 mph - N/A   Scattered Clouds
6:35 PM 57.2 °F - 26.6 °F 31% 30.19 in 10.0 mi NW 6.9 mph - N/A   Scattered Clouds
6:55 PM 55.4 °F - 28.4 °F 36% 30.21 in 10.0 mi NNW 5.8 mph - N/A   Scattered Clouds
7:15 PM 53.6 °F - 28.4 °F 38% 30.21 in 10.0 mi NNW 6.9 mph - N/A   Scattered Clouds
7:35 PM 53.6 °F - 28.4 °F 38% 30.22 in 10.0 mi NW 5.8 mph - N/A   Scattered Clouds
7:55 PM 51.8 °F - 30.2 °F 44% 30.24 in 10.0 mi NW 5.8 mph - N/A   Scattered Clouds
8:15 PM 51.8 °F - 30.2 °F 44% 30.25 in 10.0 mi NNW 5.8 mph - N/A   Scattered Clouds
8:35 PM 51.8 °F - 30.2 °F 44% 30.26 in 10.0 mi NW 6.9 mph - N/A   Scattered Clouds
8:55 PM 51.8 °F - 30.2 °F 44% 30.26 in 10.0 mi NNW 6.9 mph - N/A   Scattered Clouds
9:35 PM 50.0 °F - 30.2 °F 47% 30.28 in 10.0 mi NNW 6.9 mph - N/A   Scattered Clouds
9:55 PM 50.0 °F - 30.2 °F 47% 30.29 in 10.0 mi NNW 5.8 mph - N/A   Scattered Clouds
10:15 PM 48.2 °F - 30.2 °F 50% 30.29 in 10.0 mi NNW 8.1 mph - N/A   Scattered Clouds
10:35 PM 48.2 °F - 28.4 °F 46% 30.30 in 10.0 mi NNW 8.1 mph - N/A   Scattered Clouds
10:55 PM 48.2 °F - 26.6 °F 43% 30.30 in 10.0 mi NNW 10.4 mph 17.3 mph N/A   Scattered Clouds
11:15 PM 48.2 °F - 24.8 °F 40% 30.30 in 10.0 mi NNW 8.1 mph - N/A   Scattered Clouds
11:35 PM 46.4 °F 43.5 °F 24.8 °F 43% 30.30 in 10.0 mi North 5.8 mph - N/A   Scattered Clouds
11:55 PM 46.4 °F 41.5 °F 23.0 °F 40% 30.30 in 10.0 mi North 10.4 mph 16.1 mph N/A   Scattered Clouds